Simultaneous Nadir Overpasses (SNOs) Predictions

Prediction of SNOs between AQUA and NOAA-19 Satellite Orbit:

Table of predicted SNOs for the next 14.0 days since TLE Epoch: 12/21/2018
Index Date (AQUA) Time (AQUA) Lat,Lon (AQUA) SZA (AQUA ) Date (NOAA-19) Time (NOAA-19) Lat,Lon (NOAA-19) SZA (NOAA-19 ) Distance(km) Time Diff (sec)
1 12/23/2018 22:52:11 80.61, 160.54 105.70 12/23/2018 22:51:57 80.60, 160.41 105.72 2.54 14
2 12/23/2018 23:41:35 -80.56, -31.21 74.40 12/23/2018 23:42:49 -80.66, -30.94 74.37 12.20 74
3 12/26/2018 04:25:55 -80.61,-102.89 74.33 12/26/2018 04:25:23 -80.60,-103.03 74.32 3.04 32
4 12/26/2018 05:15:22 80.61, 64.82 105.66 12/26/2018 05:16:26 80.62, 64.80 105.65 1.75 64
5 12/28/2018 09:59:40 80.60, -6.24 105.59 12/28/2018 09:58:57 80.60, -6.39 105.62 2.92 43
6 12/28/2018 10:49:06 -80.61, 161.37 74.41 12/28/2018 10:49:52 -80.62, 161.46 74.42 2.13 46
7 12/30/2018 15:33:24 -80.61, 90.30 74.51 12/30/2018 15:32:23 -80.60, 90.39 74.51 1.98 61
8 12/30/2018 16:22:51 80.60,-102.00 105.48 12/30/2018 16:23:26 80.61,-102.07 105.48 1.58 35
9 01/01/2019 21:07:09 80.60,-173.09 105.34 01/01/2019 21:05:56 80.60,-172.97 105.35 2.32 73
10 01/01/2019 21:56:35 -80.61, -5.48 74.67 01/01/2019 21:56:53 -80.60, -5.50 74.67 0.42 18




NCC Satellite Simultaneous Nadir Overpasses (SNOs) Prediction Service
